Clyde Park, MT

2:23 PM MST on February 14, 2016 (GMT -0700)
Mission

Weather History for KLVM - March, 2013

Change the Weather History Date:

Saturday, March 23, 2013

  Actual Average Record
Temperature  
Mean Temperature 20 °F 37 °F  
Max Temperature 30 °F 49 °F 71 °F (2004)
Min Temperature 10 °F 25 °F -14 °F (1965)
Degree Days  
Heating Degree Days 45 28  
Month to date heating degree days 696  
Since 1 July heating degree days 6044  
Cooling Degree Days 0 0  
Month to date cooling degree days 0  
Year to date cooling degree days 0  
Moisture  
Dew Point 8 °F    
Average Humidity 60    
Maximum Humidity 77    
Minimum Humidity 32    
Precipitation  
Precipitation 0.00 in 0.03 in 0.53 in (1959)
Month to date precipitation 0.55  
Year to date precipitation 1.54  
Sea Level Pressure  
Sea Level Pressure 30.31 in    
Wind  
Wind Speed 6 mph (WNW)    
Max Wind Speed 14 mph    
Max Gust Speed 18 mph    
Visibility 10 miles    
Events Snow    
T = Trace of Precipitation, MM = Missing Value Source: NWS Daily Summary

Daily Weather History Graph

Daily Weather History Graph

Search for Another Location

Airport or City:

Trip Planner

Search our weather history database for the weather conditions in past years. The results will help you decide how hot, cold, wet, or windy it might be!

Date:

Astronomy

Mar. 23, 2013 Rise Set
Actual Time 7:18 AM MDT 7:38 PM MDT
Civil Twilight 6:48 AM MDT 8:08 PM MDT
Nautical Twilight 6:13 AM MDT 8:43 PM MDT
Astronomical Twilight 5:37 AM MDT 9:19 PM MDT
Moon 3:59 PM MDT (3/23) 5:07 AM MDT (3/23)
Length of Visible Light 13h 19m
Length of Day
12h 20m
Waxing Gibbous, 85% of the Moon is Illuminated
Mar 23
Waxing Gibbous
Mar 27
Full
Apr 2
Last Quarter
Apr 10
New
Apr 18
First Quarter

Hourly Weather History & Observations

Time (MDT) Temp. Windchill Dew Point Humidity Pressure Visibility Wind Dir Wind Speed Gust Speed Precip Events Conditions
12:53 AM 17.1 °F - 10.9 °F 77% 30.23 in 10.0 mi Calm Calm - N/A   Overcast
1:53 AM 18.0 °F 8.7 °F 10.9 °F 74% 30.25 in 3.0 mi WNW 6.9 mph - 0.00 in Snow Light Snow
2:53 AM 15.1 °F 6.4 °F 7.0 °F 70% 30.26 in 10.0 mi Variable 5.8 mph - 0.00 in   Overcast
3:53 AM 16.0 °F 6.3 °F 7.0 °F 68% 30.25 in 10.0 mi West 6.9 mph - N/A   Overcast
4:53 AM 16.0 °F 5.3 °F 6.1 °F 65% 30.26 in 10.0 mi NW 8.1 mph - N/A   Overcast
5:53 AM 12.0 °F 0.5 °F 3.9 °F 70% 30.32 in 10.0 mi WNW 8.1 mph - N/A   Mostly Cloudy
6:53 AM 10.9 °F -0.8 °F 3.0 °F 70% 30.35 in 10.0 mi WNW 8.1 mph - N/A   Scattered Clouds
7:53 AM 10.9 °F 0.2 °F 3.0 °F 70% 30.36 in 10.0 mi NW 6.9 mph - N/A   Mostly Cloudy
8:53 AM 12.9 °F 1.6 °F 3.9 °F 67% 30.38 in 10.0 mi NW 8.1 mph - N/A   Clear
9:53 AM 17.1 °F 6.6 °F 7.0 °F 65% 30.37 in 10.0 mi NW 8.1 mph - N/A   Clear
10:53 AM 19.9 °F 9.3 °F 10.0 °F 65% 30.35 in 10.0 mi NNW 9.2 mph - N/A   Clear
11:53 AM 24.1 °F 16.0 °F 12.0 °F 60% 30.33 in 10.0 mi NW 6.9 mph - N/A   Clear
12:53 PM 25.0 °F 16.3 °F 10.9 °F 55% 30.32 in 10.0 mi NW 8.1 mph - N/A   Scattered Clouds
1:53 PM 27.0 °F 18.7 °F 10.0 °F 49% 30.29 in 10.0 mi West 8.1 mph - N/A   Overcast
2:53 PM 28.0 °F 20.0 °F 9.0 °F 45% 30.29 in 10.0 mi West 8.1 mph - N/A   Mostly Cloudy
3:53 PM 28.9 °F 18.2 °F 8.1 °F 41% 30.28 in 10.0 mi West 13.8 mph 18.4 mph N/A   Overcast
4:53 PM 30.0 °F 22.4 °F 10.9 °F 45% 30.27 in 10.0 mi South 8.1 mph - 0.00 in   Overcast
5:53 PM 28.0 °F 20.0 °F 6.1 °F 39% 30.29 in 10.0 mi SW 8.1 mph - N/A   Overcast
6:53 PM 28.9 °F 19.2 °F 1.9 °F 32% 30.29 in 10.0 mi West 11.5 mph - N/A   Overcast
8:53 PM 21.9 °F 11.0 °F 9.0 °F 58% 30.34 in 10.0 mi East 10.4 mph - N/A   Overcast
9:53 PM 19.0 °F 9.0 °F 8.1 °F 62% 30.35 in 10.0 mi East 8.1 mph - N/A   Mostly Cloudy
10:53 PM 21.0 °F 13.4 °F 10.0 °F 63% 30.34 in 10.0 mi East 5.8 mph - N/A   Overcast
11:53 PM 18.0 °F - 9.0 °F 68% 30.34 in 10.0 mi Calm Calm - N/A   Overcast